757  
ASUS43 KGLD 190208  
RWRGLD  
 
GOODLAND FORECAST AREA HOURLY WEATHER ROUNDUP  
NATIONAL WEATHER SERVICE GOODLAND KS  
800 PM MDT WED JUL 18 2018  
   
..OFFICIAL OBSERVATIONS
 
 
 
CITY SKY/WX TMP DP RH WIND PRES REMARKS
 
GOODLAND KS CLEAR 83 68 60 SE10 29.97F  
HILL CITY KS CLEAR 82 71 69 SE6 29.91F  
IMPERIAL NEB CLEAR 80 70 71 SE3 29.95F  
MCCOOK NEB CLEAR 81 70 69 S5 29.91S  
AKRON CO CLEAR 81 57 43 E13 30.04R  
BURLINGTON CO CLEAR 83 58 42 SE9 30.01S  
LIMON CO PTCLDY 79 53 40 S6 30.10S  

 
   
..UNOFFICIAL OBSERVATIONS
 
 
 
CITY SKY/WX TMP DP RH WIND PRES REMARKS
 
COLBY KS CLEAR 77 68 73 E7 29.97F  
NORTON KS CLEAR 79 70 73 SE8 29.91  
KIT CARSON CO N/A 87 52 29 CALM N/A  
YUMA CO FAIR N/A N/A N/A E6 30.00S  

 
 
 
CLICK HERE TO GO TO PREVIOUS BULLETINS.

The Nexlab KS Page
The Nexlab CO Page
The Nexlab NE Page Main Text Page